Location: *
(40.7873°S, 98.7174°E)
Time: 10:48:14
(UTC+00:00)

CBERS 1 LM4 rocket - Pass Details

Date: 24 May 2022
Orbit: 700 x 842 km, 98.8° (Epoch: 04 July)

Event Time Altitude Azimuth Distance (km) Brightness Sun altitude
Rises 11:03:51 0° 167° (SSE) 3,127 7.3 -10.1°
Reaches altitude 10° 11:06:06 10° 166° (SSE) 2,205 6.6 -10.5°
Maximum altitude 11:10:56 89° 80° (E) 728 4.4 -11.4°
Drops below altitude 10° 11:15:49 10° 345° (NNW) 2,226 7.3 -12.3°
Sets 11:18:06 0° 345° (NNW) 3,158 8.2 -12.7°
